Location: Richmond
(37.5536°N, 77.4606°W)
Time: 07:42:01
(UTC-04:00)

ISS - Visible Passes

Search period start: 25 March 2017 00:00
Search period end: 04 April 2017 00:00
Orbit: 399 x 409 km, 51.6° (Epoch: 25 March)

Date Brightness Start Highest point End Pass type
(mag) Time Alt. Az. Time Alt. Az. Time Alt. Az.
25 Mar -1.7 05:35:20 17° S 05:35:20 17° S 05:36:21 10° SSE visible
25 Mar -2.0 20:33:01 10° S 20:34:28 17° SSE 20:34:28 17° SSE visible
26 Mar -2.9 21:16:01 10° SW 21:18:21 43° WSW 21:18:21 43° WSW visible
27 Mar -3.7 20:23:43 10° SSW 20:26:53 51° SE 20:29:15 16° ENE visible
27 Mar -0.6 22:01:05 10° WNW 22:01:58 14° WNW 22:01:58 14° WNW visible
28 Mar -2.0 21:08:01 10° W 21:10:58 30° NNW 21:12:33 20° NNE visible
29 Mar -3.2 20:15:15 10° WSW 20:18:27 57° NW 20:21:41 10° NE visible
29 Mar -0.7 21:54:09 10° NW 21:55:29 12° NNW 21:55:36 12° NNW visible
30 Mar -1.1 21:00:33 10° WNW 21:02:47 17° NNW 21:05:01 10° NNE visible
31 Mar -1.7 20:07:20 10° W 20:10:07 26° NNW 20:12:55 10° NNE visible
01 Apr -0.7 20:53:46 10° NNW 20:54:41 11° NNW 20:55:34 10° N visible
02 Apr -1.0 19:59:55 10° WNW 20:01:53 15° NNW 20:03:52 10° NNE visible
